Regional Weather Roundup
Issued by NWS Midland/Odessa, TX

Skip options and go directly to product.
Home | Oldest Version | Previous Version | Current Version | All | Text Only | Save Text | Print | Product List | Glossary Off

Skip product version selection by date and time.   

719
ASUS44 KMAF 220910
RWRMAF
MIDLAND AREA WEATHER ROUNDUP
NATIONAL WEATHER SERVICE MIDLAND TX
300 AM CST MON DEC 22 2014

...IN SOUTHWEST TEXAS AND SOUTHEAST NEW MEXICO...

CITY           SKY/WX    TMP DP  RH WIND       PRES   REMARKS
ALPINE         CLOUDY    56  25  30 SW14G25   29.91F
ANDREWS        FAIR      51  28  40 W10       29.72S
ARTESIA        CLOUDY    54  28  37 SW16G25   29.77R
BIG SPRING     PTCLDY    55  28  34 SW12      29.70F
CARLSBAD       CLOUDY    61  27  27 W26G33    29.73S
DRYDEN           N/A     44  44 100 CALM      29.75F
FORT STOCKTON  CLOUDY    55  26  32 W14       29.75F
GUAD PASS      NOT AVBL
HOBBS          CLOUDY    50  27  40 W12       29.75R
MARFA          CLOUDY    52  25  35 W12G21    29.91F
MIDLAND AIRPK  PTCLDY    55  28  34 W12       29.72S
MIDLAND INTL   PTCLDY    50  28  42 W9        29.72S
ODESSA         PTCLDY    49  26  41 W8        29.74R
PECOS          MOCLDY    60  30  32 W18       29.75R
PRESIDIO       FAIR      52  27  37 SE8       29.88F
SEMINOLE       MOCLDY    49  29  45 W14       29.71F
SNYDER         MOCLDY    53  30  42 W16       29.64S
WINK           MOCLDY    55  26  32 W13       29.73R
$$
...OTHER STATIONS IN TEXAS...

CITY           SKY/WX    TMP DP  RH WIND       PRES   REMARKS
ABILENE        PTCLDY    49  42  77 SW13      29.62F
AMARILLO       CLEAR     44  28  53 NW10      29.61R WCI  39
AUSTIN         CLOUDY    56  54  93 S15       29.77F
BROWNSVILLE    CLOUDY    64  61  90 S5        29.82F
CORPUS CHRISTI FOG       59  59 100 SW6       29.81F VSB 1/4
DALLAS FTW     MOCLDY    52  47  83 S23       29.61F
DEL RIO        FOG       53  52  96 SE7       29.77F VSB 1
EL PASO        CLOUDY    55  29  36 VRB6      29.91S
HOUSTON INT    CLOUDY    56  55  97 SE6       29.81F
LUBBOCK        CLEAR     50  31  48 W13       29.62R
SAN ANGELO     MOCLDY    50  46  86 SW12      29.71S
SAN ANTONIO    DRIZZLE   56  55  97 S8        29.81F FOG
WACO           CLOUDY    56  50  80 S12G21    29.70F
WICHITA FALLS  NOT AVBL
$$
...OTHER LOCATIONS IN NEW MEXICO...

CITY           SKY/WX    TMP DP  RH WIND       PRES   REMARKS
ALAMAGORDO     MOCLDY    36  28  75 SE5       29.91S WCI  32
ALBUQUERQUE    MOCLDY    35  28  75 SE7       29.92R WCI  29
CANNON AFB     CLEAR     50  31  47 W20G26    29.66F
CLOVIS         CLEAR     46  28  49 W18       29.65S WCI  39
HOLLOMAN AFB   CLOUDY    36  29  76 SW5       29.90R WCI  32
ROSWELL        CLOUDY    44  28  53 VRB3      29.76R
RUIDOSO        CLOUDY    46  27  46 NW28G46   29.87S WCI  37
SANTA FE       PTCLDY    43  29  57 W26G33    29.81F WCI  33
TRUTH OR CONSE MOCLDY    52  31  44 W10       29.92F
TUCUMCARI      CLEAR     48  29  47 W16       29.64R
$$

USA.gov is the U.S. government's official web portal to all federal, state and local government web resources and services.